Time,TemperatureF,DewpointF,PressureIn,WindDirection,WindDirectionDegrees,WindSpeedMPH,WindSpeedGustMPH,Humidity,HourlyPrecipIn,Conditions,Clouds,dailyrainin,SoftwareType,DateUTC
2013-04-04 00:02:00,48.0,32.0,30.12,ENE,76,9.0,9.0,53,0.00,,,0.06,,2013-04-04 05:02:00,
2013-04-04 00:13:00,48.0,32.0,30.12,ENE,76,9.0,9.0,53,0.00,,,0.06,,2013-04-04 05:13:00,
2013-04-04 00:23:00,48.0,32.0,30.12,NE,36,3.0,7.0,53,0.00,,,0.06,,2013-04-04 05:23:00,
2013-04-04 00:32:00,48.0,32.0,30.12,NE,48,7.0,8.0,53,0.00,,,0.06,,2013-04-04 05:32:00,
2013-04-04 00:42:00,48.0,32.0,30.12,NE,48,7.0,8.0,53,0.00,,,0.06,,2013-04-04 05:42:00,
2013-04-04 00:52:00,47.0,31.0,30.11,NE,45,6.0,8.0,54,0.00,,,0.06,,2013-04-04 05:52:00,
2013-04-04 01:02:00,47.0,33.0,30.11,NE,51,2.0,6.0,57,0.00,,,0.06,,2013-04-04 06:02:00,
2013-04-04 01:12:00,47.0,33.0,30.11,NE,51,2.0,6.0,57,0.00,,,0.06,,2013-04-04 06:12:00,
2013-04-04 01:22:00,47.0,33.0,30.11,NE,51,2.0,6.0,57,0.00,,,0.06,,2013-04-04 06:22:00,
2013-04-04 01:32:00,47.0,33.0,30.10,East,83,2.0,8.0,58,0.00,,,0.06,,2013-04-04 06:32:00,
2013-04-04 01:42:00,47.0,33.0,30.10,East,83,2.0,8.0,58,0.00,,,0.06,,2013-04-04 06:42:00,
2013-04-04 01:53:00,46.0,33.0,30.09,NE,44,5.0,6.0,60,0.00,,,0.06,,2013-04-04 06:53:00,
2013-04-04 02:02:00,46.0,34.0,30.09,NE,40,3.0,6.0,63,0.00,,,0.06,,2013-04-04 07:02:00,
2013-04-04 02:12:00,46.0,34.0,30.09,NE,40,3.0,6.0,63,0.00,,,0.06,,2013-04-04 07:12:00,
2013-04-04 02:22:00,46.0,35.0,30.09,NNE,25,2.0,5.0,65,0.00,,,0.06,,2013-04-04 07:22:00,
2013-04-04 02:32:00,46.0,37.0,30.08,NE,40,2.0,4.0,71,0.01,,,0.07,,2013-04-04 07:32:00,
2013-04-04 02:43:00,46.0,37.0,30.08,NE,40,2.0,4.0,71,0.01,,,0.07,,2013-04-04 07:43:00,
2013-04-04 02:52:00,46.0,37.0,30.08,NE,40,2.0,4.0,71,0.01,,,0.07,,2013-04-04 07:52:00,
2013-04-04 03:02:00,45.0,38.0,30.07,NNE,17,3.0,3.0,76,0.02,,,0.08,,2013-04-04 08:02:00,
2013-04-04 03:12:00,45.0,38.0,30.07,NNE,17,3.0,3.0,76,0.02,,,0.08,,2013-04-04 08:12:00,
2013-04-04 03:23:00,44.0,38.0,30.06,North,355,2.0,2.0,79,0.02,,,0.08,,2013-04-04 08:23:00,
2013-04-04 03:32:00,43.0,38.0,30.05,NE,40,2.0,4.0,82,0.02,,,0.09,,2013-04-04 08:32:00,
2013-04-04 03:43:00,43.0,38.0,30.05,NE,40,2.0,4.0,82,0.02,,,0.09,,2013-04-04 08:43:00,
2013-04-04 03:52:00,43.0,38.0,30.05,NE,54,2.0,7.0,83,0.02,,,0.10,,2013-04-04 08:52:00,
2013-04-04 04:02:00,42.0,38.0,30.04,NE,56,2.0,6.0,86,0.04,,,0.12,,2013-04-04 09:02:00,
2013-04-04 04:12:00,42.0,38.0,30.04,NE,56,2.0,6.0,86,0.04,,,0.12,,2013-04-04 09:12:00,
2013-04-04 04:22:00,42.0,38.0,30.04,NE,56,2.0,6.0,86,0.04,,,0.12,,2013-04-04 09:22:00,
2013-04-04 04:33:00,41.0,38.0,30.03,NNE,16,5.0,11.0,90,0.05,,,0.14,,2013-04-04 09:33:00,
2013-04-04 04:43:00,41.0,38.0,30.03,NNE,16,5.0,11.0,90,0.05,,,0.14,,2013-04-04 09:43:00,
2013-04-04 04:54:00,41.0,38.0,30.03,NNE,16,5.0,11.0,90,0.05,,,0.14,,2013-04-04 09:54:00,
2013-04-04 05:04:00,41.0,39.0,30.02,East,82,5.0,10.0,92,0.06,,,0.18,,2013-04-04 10:04:00,
2013-04-04 05:12:00,41.0,39.0,30.02,East,82,5.0,10.0,92,0.06,,,0.18,,2013-04-04 10:12:00,
2013-04-04 05:24:00,41.0,39.0,30.03,NNE,28,5.0,8.0,92,0.07,,,0.20,,2013-04-04 10:24:00,
2013-04-04 05:33:00,40.0,38.0,30.01,NE,49,5.0,10.0,93,0.08,,,0.22,,2013-04-04 10:33:00,
2013-04-04 05:42:00,40.0,38.0,30.01,NE,49,5.0,10.0,93,0.08,,,0.22,,2013-04-04 10:42:00,
2013-04-04 05:53:00,40.0,38.0,30.01,NE,56,3.0,10.0,93,0.07,,,0.23,,2013-04-04 10:53:00,
2013-04-04 06:02:00,40.0,38.0,30.02,NE,43,4.0,10.0,93,0.07,,,0.24,,2013-04-04 11:02:00,
2013-04-04 06:12:00,40.0,38.0,30.02,NE,43,4.0,10.0,93,0.07,,,0.24,,2013-04-04 11:12:00,
2013-04-04 06:22:00,40.0,38.0,30.02,NE,43,4.0,10.0,93,0.07,,,0.24,,2013-04-04 11:22:00,
2013-04-04 06:33:00,40.0,38.0,30.02,NE,43,4.0,10.0,93,0.07,,,0.24,,2013-04-04 11:33:00,
2013-04-04 06:54:00,40.0,38.0,30.03,NNE,28,6.0,6.0,94,0.09,,,0.32,,2013-04-04 11:54:00,
2013-04-04 07:02:00,40.0,38.0,30.04,North,350,2.0,3.0,94,0.08,,,0.34,,2013-04-04 12:02:00,
2013-04-04 07:12:00,40.0,38.0,30.04,North,350,2.0,3.0,94,0.08,,,0.34,,2013-04-04 12:12:00,
2013-04-04 07:22:00,40.0,38.0,30.04,North,350,2.0,3.0,94,0.08,,,0.34,,2013-04-04 12:22:00,
2013-04-04 07:32:00,40.0,39.0,30.03,ENE,63,4.0,5.0,95,0.04,,,0.34,,2013-04-04 12:32:00,
2013-04-04 07:43:00,40.0,39.0,30.03,ENE,63,4.0,5.0,95,0.04,,,0.34,,2013-04-04 12:43:00,
2013-04-04 07:52:00,41.0,40.0,30.04,North,350,2.0,4.0,95,0.02,,,0.34,,2013-04-04 12:52:00,
2013-04-04 08:02:00,41.0,40.0,30.04,NE,42,4.0,5.0,95,0.01,,,0.35,,2013-04-04 13:02:00,
2013-04-04 08:12:00,41.0,40.0,30.04,NE,42,4.0,5.0,95,0.01,,,0.35,,2013-04-04 13:12:00,
2013-04-04 08:22:00,41.0,40.0,30.04,NE,42,4.0,5.0,95,0.01,,,0.35,,2013-04-04 13:22:00,
2013-04-04 08:32:00,41.0,40.0,30.04,NE,42,4.0,5.0,95,0.01,,,0.35,,2013-04-04 13:32:00,
2013-04-04 08:42:00,41.0,40.0,30.04,NE,42,4.0,5.0,95,0.01,,,0.35,,2013-04-04 13:42:00,
2013-04-04 08:53:00,41.0,40.0,30.04,NE,40,5.0,6.0,95,0.01,,,0.35,,2013-04-04 13:53:00,
2013-04-04 09:03:00,41.0,40.0,30.04,NNE,21,4.0,6.0,96,0.00,,,0.35,,2013-04-04 14:03:00,
2013-04-04 09:13:00,41.0,40.0,30.04,NNE,21,4.0,6.0,96,0.00,,,0.35,,2013-04-04 14:13:00,
2013-04-04 09:22:00,41.0,40.0,30.04,NE,49,4.0,6.0,96,0.00,,,0.35,,2013-04-04 14:22:00,
2013-04-04 09:32:00,42.0,41.0,30.03,NE,46,5.0,6.0,96,0.00,,,0.35,,2013-04-04 14:32:00,
2013-04-04 09:42:00,42.0,41.0,30.03,NE,46,5.0,6.0,96,0.00,,,0.35,,2013-04-04 14:42:00,
2013-04-04 09:52:00,42.0,41.0,30.03,NE,46,5.0,6.0,96,0.00,,,0.35,,2013-04-04 14:52:00,
2013-04-04 10:02:00,42.0,41.0,30.03,NNE,17,3.0,8.0,96,0.00,,,0.35,,2013-04-04 15:02:00,
2013-04-04 10:12:00,42.0,41.0,30.03,NNE,17,3.0,8.0,96,0.00,,,0.35,,2013-04-04 15:12:00,
2013-04-04 10:23:00,42.0,41.0,30.03,NE,51,5.0,7.0,96,0.00,,,0.35,,2013-04-04 15:23:00,
2013-04-04 10:33:00,42.0,41.0,30.04,North,5,4.0,5.0,96,0.00,,,0.35,,2013-04-04 15:33:00,
2013-04-04 10:43:00,42.0,41.0,30.04,North,5,4.0,5.0,96,0.00,,,0.35,,2013-04-04 15:43:00,
2013-04-04 10:53:00,42.0,41.0,30.04,NE,48,6.0,7.0,96,0.00,,,0.35,,2013-04-04 15:53:00,
2013-04-04 11:03:00,43.0,42.0,30.04,NE,55,5.0,6.0,96,0.00,,,0.35,,2013-04-04 16:03:00,
2013-04-04 11:12:00,43.0,42.0,30.04,NE,55,5.0,6.0,96,0.00,,,0.35,,2013-04-04 16:12:00,
2013-04-04 11:23:00,43.0,42.0,30.04,NE,49,5.0,7.0,96,0.00,,,0.35,,2013-04-04 16:23:00,
2013-04-04 11:32:00,43.0,42.0,30.05,NE,46,3.0,10.0,96,0.00,,,0.35,,2013-04-04 16:32:00,
2013-04-04 11:42:00,43.0,42.0,30.05,NE,46,3.0,10.0,96,0.00,,,0.35,,2013-04-04 16:42:00,
2013-04-04 11:53:00,43.0,42.0,30.05,ENE,57,5.0,7.0,96,0.00,,,0.35,,2013-04-04 16:53:00,
2013-04-04 12:03:00,43.0,42.0,30.04,ENE,57,6.0,8.0,96,0.00,,,0.35,,2013-04-04 17:03:00,
2013-04-04 12:13:00,43.0,42.0,30.04,ENE,57,6.0,8.0,96,0.00,,,0.35,,2013-04-04 17:13:00,
2013-04-04 12:22:00,43.0,42.0,30.04,NNE,27,2.0,5.0,96,0.00,,,0.35,,2013-04-04 17:22:00,
2013-04-04 12:33:00,43.0,42.0,30.04,NE,52,6.0,6.0,96,0.00,,,0.35,,2013-04-04 17:33:00,
2013-04-04 12:42:00,43.0,42.0,30.04,NE,52,6.0,6.0,96,0.00,,,0.35,,2013-04-04 17:42:00,
2013-04-04 12:52:00,44.0,43.0,30.04,North,5,4.0,4.0,96,0.00,,,0.35,,2013-04-04 17:52:00,
2013-04-04 13:02:00,44.0,43.0,30.03,NE,49,3.0,4.0,96,0.00,,,0.35,,2013-04-04 18:02:00,
2013-04-04 13:12:00,44.0,43.0,30.03,NE,49,3.0,4.0,96,0.00,,,0.35,,2013-04-04 18:12:00,
2013-04-04 13:22:00,44.0,43.0,30.03,NNW,330,6.0,6.0,96,0.00,,,0.35,,2013-04-04 18:22:00,
2013-04-04 13:32:00,44.0,43.0,30.01,NNW,340,6.0,8.0,96,0.00,,,0.35,,2013-04-04 18:32:00,
2013-04-04 13:42:00,44.0,43.0,30.01,NNW,340,6.0,8.0,96,0.00,,,0.35,,2013-04-04 18:42:00,
2013-04-04 13:52:00,44.0,43.0,30.01,NE,50,4.0,7.0,96,0.00,,,0.35,,2013-04-04 18:52:00,
2013-04-04 14:02:00,45.0,44.0,30.00,NE,53,5.0,8.0,96,0.01,,,0.36,,2013-04-04 19:02:00,
2013-04-04 14:12:00,45.0,44.0,30.00,NE,53,5.0,8.0,96,0.01,,,0.36,,2013-04-04 19:12:00,
2013-04-04 14:22:00,45.0,44.0,30.00,NE,53,5.0,8.0,96,0.01,,,0.36,,2013-04-04 19:22:00,
2013-04-04 14:32:00,45.0,44.0,29.98,ENE,63,3.0,7.0,96,0.01,,,0.35,,2013-04-04 19:32:00,
2013-04-04 14:42:00,45.0,44.0,29.98,ENE,63,3.0,7.0,96,0.01,,,0.35,,2013-04-04 19:42:00,
2013-04-04 14:52:00,45.0,44.0,29.98,ENE,69,5.0,6.0,96,0.01,,,0.35,,2013-04-04 19:52:00,
2013-04-04 15:03:00,45.0,44.0,29.98,NE,42,3.0,4.0,96,0.00,,,0.34,,2013-04-04 20:03:00,
2013-04-04 15:12:00,45.0,44.0,29.98,NE,42,3.0,4.0,96,0.00,,,0.34,,2013-04-04 20:12:00,
2013-04-04 15:22:00,45.0,44.0,29.98,NE,47,2.0,7.0,96,0.00,,,0.33,,2013-04-04 20:22:00,
2013-04-04 15:32:00,45.0,44.0,29.97,NE,51,6.0,6.0,96,0.00,,,0.33,,2013-04-04 20:32:00,
2013-04-04 15:42:00,45.0,44.0,29.97,NE,51,6.0,6.0,96,0.00,,,0.33,,2013-04-04 20:42:00,
2013-04-04 15:52:00,45.0,44.0,29.97,NE,51,6.0,6.0,96,0.00,,,0.33,,2013-04-04 20:52:00,
2013-04-04 16:02:00,46.0,45.0,29.97,NE,35,3.0,6.0,95,0.00,,,0.32,,2013-04-04 21:02:00,
2013-04-04 16:12:00,46.0,45.0,29.97,NE,35,3.0,6.0,95,0.00,,,0.32,,2013-04-04 21:12:00,
2013-04-04 16:22:00,46.0,45.0,29.97,ENE,63,6.0,8.0,95,0.00,,,0.32,,2013-04-04 21:22:00,
2013-04-04 16:32:00,46.0,45.0,29.97,NE,54,6.0,6.0,95,0.00,,,0.31,,2013-04-04 21:32:00,
2013-04-04 16:43:00,46.0,45.0,29.97,NE,54,6.0,6.0,95,0.00,,,0.31,,2013-04-04 21:43:00,
2013-04-04 16:52:00,46.0,45.0,29.97,ENE,59,5.0,5.0,95,0.00,,,0.31,,2013-04-04 21:52:00,
2013-04-04 17:03:00,46.0,45.0,29.97,NNW,348,3.0,6.0,95,0.00,,,0.31,,2013-04-04 22:03:00,
2013-04-04 17:12:00,46.0,45.0,29.97,NNW,348,3.0,6.0,95,0.00,,,0.31,,2013-04-04 22:12:00,
2013-04-04 17:23:00,46.0,45.0,29.98,North,355,2.0,4.0,95,0.00,,,0.31,,2013-04-04 22:23:00,
2013-04-04 17:33:00,46.0,45.0,29.98,North,5,7.0,7.0,95,0.00,,,0.31,,2013-04-04 22:33:00,
2013-04-04 17:42:00,46.0,45.0,29.98,North,5,7.0,7.0,95,0.00,,,0.31,,2013-04-04 22:42:00,
2013-04-04 17:53:00,46.0,45.0,29.98,NNW,335,5.0,5.0,96,0.00,,,0.31,,2013-04-04 22:53:00,
2013-04-04 18:02:00,46.0,45.0,29.98,NNW,345,8.0,8.0,96,0.02,,,0.32,,2013-04-04 23:02:00,
2013-04-04 18:12:00,46.0,45.0,29.98,NNW,345,8.0,8.0,96,0.02,,,0.32,,2013-04-04 23:12:00,
2013-04-04 18:22:00,46.0,45.0,29.98,North,351,6.0,7.0,96,0.03,,,0.33,,2013-04-04 23:22:00,
2013-04-04 18:32:00,46.0,45.0,29.98,North,350,2.0,6.0,96,0.04,,,0.34,,2013-04-04 23:32:00,
2013-04-04 18:42:00,46.0,45.0,29.98,North,350,2.0,6.0,96,0.04,,,0.34,,2013-04-04 23:42:00,
2013-04-04 18:52:00,45.0,44.0,29.98,North,360,3.0,6.0,96,0.05,,,0.35,,2013-04-04 23:52:00,
2013-04-04 19:02:00,45.0,44.0,29.99,NE,38,2.0,7.0,96,0.04,,,0.36,,2013-04-05 00:02:00,
2013-04-04 19:12:00,45.0,44.0,29.99,NE,38,2.0,7.0,96,0.04,,,0.36,,2013-04-05 00:12:00,
2013-04-04 19:22:00,45.0,44.0,29.99,NNW,344,3.0,9.0,96,0.04,,,0.37,,2013-04-05 00:22:00,
2013-04-04 19:32:00,45.0,44.0,29.99,North,355,4.0,5.0,96,0.04,,,0.38,,2013-04-05 00:32:00,
2013-04-04 19:42:00,45.0,44.0,29.99,North,355,4.0,5.0,96,0.04,,,0.38,,2013-04-05 00:42:00,
2013-04-04 19:52:00,45.0,44.0,29.99,North,355,4.0,5.0,96,0.04,,,0.38,,2013-04-05 00:52:00,
2013-04-04 20:02:00,45.0,44.0,29.99,North,355,4.0,6.0,96,0.03,,,0.39,,2013-04-05 01:02:00,
2013-04-04 20:12:00,45.0,44.0,29.99,North,355,4.0,6.0,96,0.03,,,0.39,,2013-04-05 01:12:00,
2013-04-04 20:22:00,45.0,44.0,30.00,NNW,343,2.0,3.0,96,0.02,,,0.39,,2013-04-05 01:22:00,
2013-04-04 20:32:00,45.0,44.0,30.00,NNW,343,2.0,3.0,96,0.02,,,0.39,,2013-04-05 01:32:00,
2013-04-04 20:42:00,45.0,44.0,30.00,NNW,343,2.0,3.0,96,0.02,,,0.39,,2013-04-05 01:42:00,
2013-04-04 20:52:00,45.0,44.0,30.01,NNW,343,7.0,7.0,96,0.02,,,0.40,,2013-04-05 01:52:00,
2013-04-04 21:03:00,45.0,44.0,30.01,NNW,346,2.0,4.0,96,0.01,,,0.40,,2013-04-05 02:03:00,
2013-04-04 21:12:00,45.0,44.0,30.01,NNW,346,2.0,4.0,96,0.01,,,0.40,,2013-04-05 02:12:00,
2013-04-04 21:22:00,45.0,44.0,30.01,NNW,334,3.0,7.0,96,0.01,,,0.40,,2013-04-05 02:22:00,
2013-04-04 21:32:00,45.0,44.0,30.02,North,355,3.0,4.0,96,0.01,,,0.41,,2013-04-05 02:32:00,
2013-04-04 21:42:00,45.0,44.0,30.02,North,355,3.0,4.0,96,0.01,,,0.41,,2013-04-05 02:42:00,
2013-04-04 21:52:00,45.0,44.0,30.02,North,355,3.0,4.0,96,0.01,,,0.41,,2013-04-05 02:52:00,
2013-04-04 22:02:00,45.0,44.0,30.02,NNE,12,4.0,4.0,97,0.04,,,0.44,,2013-04-05 03:02:00,
2013-04-04 22:12:00,45.0,44.0,30.02,NNE,12,4.0,4.0,97,0.04,,,0.44,,2013-04-05 03:12:00,
2013-04-04 22:22:00,45.0,44.0,30.03,North,355,2.0,6.0,97,0.04,,,0.44,,2013-04-05 03:22:00,
2013-04-04 22:32:00,45.0,44.0,30.03,North,349,3.0,6.0,97,0.05,,,0.45,,2013-04-05 03:32:00,
2013-04-04 22:43:00,45.0,44.0,30.03,North,349,3.0,6.0,97,0.05,,,0.45,,2013-04-05 03:43:00,
2013-04-04 22:53:00,45.0,44.0,30.03,North,349,3.0,6.0,97,0.05,,,0.45,,2013-04-05 03:53:00,
2013-04-04 23:02:00,45.0,44.0,30.03,North,355,2.0,4.0,97,0.02,,,0.46,,2013-04-05 04:02:00,
2013-04-04 23:12:00,45.0,44.0,30.03,North,355,2.0,4.0,97,0.02,,,0.46,,2013-04-05 04:12:00,
2013-04-04 23:22:00,45.0,44.0,30.03,North,355,2.0,2.0,97,0.02,,,0.46,,2013-04-05 04:22:00,
2013-04-04 23:32:00,45.0,44.0,30.03,North,360,2.0,2.0,97,0.00,,,0.46,,2013-04-05 04:32:00,
2013-04-04 23:42:00,45.0,44.0,30.03,North,360,2.0,2.0,97,0.00,,,0.46,,2013-04-05 04:42:00,
2013-04-04 23:52:00,45.0,44.0,30.04,NW,316,3.0,3.0,97,0.00,,,0.46,,2013-04-05 04:52:00,